Regional Weather Roundup
Issued by NWS

Home | Current Version | Previous Version | Text Only | Print | Product List | Glossary Off
Versions: 1 2 3 4 5 6 7 8 9 10 11 12 13 14 15 16 17 18 19 20 21 22 23 24 25 26 27 28 29 30 31 32 33 34 35 36 37 38 39 40 41 42 43 44 45 46 47 48 49 50

000
ASUS43 KFSD 251802
RWRSD

WEATHER ROUNDUP FOR SOUTH DAKOTA
NATIONAL WEATHER SERVICE SIOUX FALLS SD
100 PM CDT MON JUL 25 2016

NOTE: "FAIR" INDICATES FEW OR NO CLOUDS BELOW 12,000 FEET WITH NO
SIGNIFICANT WEATHER AND/OR OBSTRUCTIONS TO VISIBILITY.


SDZ001>005-009-010-012>017-251900-
NORTHWEST AND NORTH CENTRAL SOUTH DAKOTA

CITY           SKY/WX    TMP DP  RH WIND       PRES   REMARKS
BUFFALO          N/A    N/A N/A N/A MISG      29.94F
FAITH            N/A     92  52  25 S23G30    30.01F
MOBRIDGE       SUNNY     95  58  28 S16G24    29.97F
$$

SDZ012>016-024>037-041>051-057-063-072>074-251900-
SOUTHWEST AND SOUTH CENTRAL SOUTH DAKOTA

CITY           SKY/WX    TMP DP  RH WIND       PRES   REMARKS
RAPID CTY ARPT SUNNY     88  56  33 S16G23    30.06F
PIERRE         SUNNY     94  55  26 S14       30.01F
CUSTER         SUNNY     79  54  41 S9G17     30.22S
ELLSWORTH AFB  SUNNY     88  58  35 S22G31    30.04F
PHILIP         SUNNY     92  57  30 S13G25    30.02F
PINE RIDGE     SUNNY     87  55  33 S14G26    30.11F
WINNER         FAIR      92  43  18 S17       30.09F
$$

SDZ004>011-016>023-039-040-251900-
NORTHEAST SOUTH DAKOTA

CITY           SKY/WX    TMP DP  RH WIND       PRES   REMARKS
ABERDEEN       SUNNY     88  60  38 S15G23    30.04F
WATERTOWN      SUNNY     85  59  41 SW14      30.10F
BROOKINGS      SUNNY     82  61  48 SW13      30.12S
SISSETON         N/A     87  58  37 SW12      30.04F
$$

SDZ017-020-022-023-036>040-048>070-251900-
SOUTHEAST SOUTH DAKOTA

CITY           SKY/WX    TMP DP  RH WIND       PRES   REMARKS
SIOUX FALLS    MOSUNNY   83  58  42 SW9       30.12S
HURON          SUNNY     86  58  38 S17       30.07F
CHAMBERLAIN    SUNNY     89  59  36 S16G23    30.08F
MITCHELL       SUNNY     86  60  41 S12G20    30.09F
YANKTON        SUNNY     84  57  39 S10       30.10F
$$

ABBREVIATIONS USED IN REMARKS
   TC - TEMPERATURE IN CELSIUS
  WCI - WIND CHILL INDEX
   HX - HEAT INDEX
  VSB - VISIBILITY





USA.gov is the U.S. government's official web portal to all federal, state and local government web resources and services.